Orbital Elements at Epoch 2459000.5 (2020-May-31.0) TDB
Reference: JPL 12 (heliocentric ecliptic J2000)
Element | Value | Uncertainty (1-sigma) | Units |
e | .1116956107703018 | 6.7329e-08 | |
a | 3.158771651571841 | 3.7453e-08 | au |
q | 2.805950722665609 | 2.0977e-07 | au |
i | 15.47791916454969 | 7.5312e-06 | deg |
node | 344.380980943736 | 2.206e-05 | deg |
peri | 149.3967654386767 | 4.1881e-05 | deg |
M | 84.97359156420117 | 3.1694e-05 | deg |
tp | 2458516.486752318602 (2019-Feb-01.98675232) | 0.000181 | TDB |
period | 2050.575548918089 5.61 | 3.647e-05 9.985e-08 | d yr |
n | .1755604665187493 | 3.1224e-09 | deg/d |
Q | 3.511592580478072 | 4.1636e-08 | au |
|
| | Orbit Determination Parameters
Additional Information
|